CAPE
0 0 0 0 0 0 0 0 0 0 0 0 0 0 0 0 0 0 0 0 0 0 0 0 0 0 0 0 0 0 0 1 2 1 2 1 1 2 2 3 1 2 6
0 0 0 0 0 0 0 6 1 0 0 0 0 1 0 0 0 0 0 0 0 0 0 0 0 0 0 0 0 0 0 0 1 0 3 2 1 0 0 1 0 9 6
0 0 0 0 3 3 14 1 1 0 0 0 1 1 0 0 0 0 0 0 0 0 0 0 0 0 0 0 0 0 0 0 1 0 3 1 1 0 0 1 0 0 4
0 0 0 0 2 9 1 1 1 1 1 0 1 0 0 0 0 0 0 0 0 0 0 0 0 0 0 0 0 0 0 1 1 1 2 1 1 1 0 1 2 5 2
1 0 0 17 2 2 1 1 1 1 1 0 0 0 0 0 0 0 0 0 0 0 0 0 2 1 2 7 0 0 0 0 1 2 1 1 1 2 3 1 1 1 1
0 2 9 0 1 1 1 1 1 1 0 0 0 0 0 0 0 0 0 0 0 0 0 0 0 1 4 2 0 0 0 0 0 0 0 0 0 0 1 0 0 0 1
0 1 1 1 1 1 0 1 0 0 0 1 0 0 0 0 0 0 0 0 0 0 0 0 0 1 2 2 0 0 0 0 0 0 0 0 0 0 1 2 0 0 0
7 1 1 1 1 0 0 0 4 4 3 1 0 0 0 0 0 0 0 0 0 0 0 2 2 0 0 0 0 0 0 0 0 0 0 1 1 0 0 0 0 0 0
1 1 1 1 0 0 0 0 4 1 0 0 0 0 0 0 0 0 0 0 0 0 0 0 0 0 0 0 0 0 0 0 1 1 0 0 0 0 0 0 0 0 0
2 1 0 0 0 0 0 0 4 5 2 0 3 2 0 1 0 0 0 0 0 0 0 0 0 0 0 0 0 0 0 0 0 0 0 0 0 0 0 0 0 0 0
1 0 0 0 0 0 6 10 8 5 4 5 4 4 3 2 1 0 0 2 0 0 0 0 0 0 0 0 0 0 0 0 0 1 0 1 2 1 0 0 0 0 0
0 0 0 0 9 3 12 12 8 3 2 2 0 1 0 1 3 1 3 5 2 0 0 0 0 0 0 0 0 0 0 0 0 1 2 2 3 3 2 1 0 0 0
0 0 0 0 0 3 6 0 0 0 0 0 0 0 0 0 0 2 5 7 1 0 0 0 0 0 0 0 0 0 0 0 1 1 2 2 1 2 2 2 2 2 1
0 0 0 0 0 0 0 0 0 0 0 0 0 0 1 0 0 0 3 1 2 0 0 0 0 0 0 0 0 0 0 0 1 1 1 1 2 1 1 2 2 3 1
0 0 0 0 0 0 0 0 0 0 0 0 0 0 7 0 0 0 1 1 0 0 0 0 0 0 0 1 1 1 0 0 0 0 1 1 1 1 1 1 2 4 4
0 0 0 0 0 0 0 0 0 0 0 0 0 0 3 0 0 0 1 0 0 0 0 1 2 1 1 1 2 1 1 1 1 2 1 1 1 1 1 1 2 5 4
0 0 0 0 0 0 0 0 0 0 0 0 0 0 0 2 0 0 0 0 0 0 0 1 1 2 1 1 1 1 1 0 1 1 1 1 1 1 2 2 2 2 2
0 1 1 0 0 0 0 0 0 0 0 0 0 0 0 0 0 0 2 2 5 7 9 1 4 1 1 1 1 2 0 1 0 0 1 1 1 1 2 1 2 1 2
12 7 3 6 0 0 0 0 0 0 1 0 0 0 0 0 0 0 0 1 10 10 2 2 1 1 1 1 1 1 1 0 1 1 2 2 2 1 2 2 2 2 1
2 1 2 0 0 0 0 0 0 0 2 0 0 0 0 0 0 0 0 2 8 3 0 1 1 0 0 0 7 0 1 1 1 1 1 1 1 1 1 2 2 3 4
0 0 0 0 0 0 0 0 0 0 0 0 0 0 0 0 0 0 0 0 0 0 0 1 3 4 5 8 10 2 1 1 1 1 1 0 0 1 1 0 1 1 0
0 0 0 0 0 0 0 0 0 0 0 0 0 0 0 0 0 0 0 0 0 0 0 0 0 0 0 0 0 0 0 0 0 0 0 0 0 0 0 0 0 0 0
0 0 0 0 0 0 0 0 0 0 0 0 0 0 0 0 0 0 0 0 0 0 0 0 0 0 0 0 0 0 0 0 0 0 0 0 0 0 0 0 0 0 0
0 0 0 0 0 0 0 0 0 0 0 0 0 0 0 0 0 0 0 0 0 0 0 0 0 0 0 0 0 0 0 0 0 0 0 0 0 0 0 0 0 0 0
0 0 0 0 0 0 0 0 0 0 0 0 0 0 0 0 0 0 0 0 0 0 0 0 0 0 0 0 0 0 0 0 0 0 0 0 0 0 0 0 0 0 0
0 0 0 0 0 0 0 0 0 0 0 0 0 0 0 0 0 0 0 0 0 0 0 0 0 0 0 0 0 0 0 0 0 0 0 0 0 0 0 0 0 0 0
CIN
-0 -0 -0 -0 -0 -0 -0 -0 -0 -0 -0 -0 -0 -0 -0 -0 -0 -0 -0 -0 -0 -0 -0 -0 -0 -0 -0 -0 -0 -0 -0 -0 -0 -0 -0 -0 -0 -0 -0 -0 -0 -1 -0
-0 -0 -0 -0 -0 -0 -0 -13 -0 -0 -0 -0 -0 -0 -0 -0 -0 -0 -0 -0 -0 -0 -0 -0 -0 -0 -0 -0 -0 -0 -0 -0 -0 -0 -0 -0 -0 -0 -0 -0 -0 -1 -0
-0 -0 -0 -5 -28 -36 -9 -2 -0 -0 -0 -0 -0 -0 -0 -0 -0 -0 -0 -0 -0 -0 -0 -0 -0 -0 -0 -0 -0 -0 -0 -0 -0 -0 -0 -0 -0 -0 -0 -0 -0 -0 -0
-0 -0 -0 -19 -16 -10 -0 -0 -0 -0 -0 -0 -0 -0 -0 -0 -0 -0 -0 -0 -0 -0 -0 -1 -0 -0 -0 -0 -0 -0 -0 -0 -0 -0 -0 -0 -0 -0 -0 -0 -0 -0 -0
-15 -5 -0 -5 -3 -0 -0 -0 -0 -0 -0 -0 -0 -0 -0 -0 -0 -0 -0 -0 -0 -0 -0 -0 -0 -0 -0 -0 -0 -0 -0 -0 -0 -0 -0 -0 -0 -0 -0 -0 -0 -0 -0
-1 -10 -6 -0 -0 -0 -0 -0 -0 -0 -0 -0 -0 -0 -0 -0 -0 -0 -0 -0 -0 -0 -0 -0 -0 -0 -0 -16 -0 -0 -0 -0 -0 -0 -0 -0 -0 -0 -0 -0 -0 -0 -0
-3 -0 -0 -0 -0 -0 -0 -0 -0 -0 -1 -5 -0 -0 -0 -0 -0 -0 -0 -0 -0 -0 -0 -0 -0 -0 -0 -0 -0 -0 -0 -0 -0 -0 -0 -0 -0 -0 -0 -0 -0 -0 -0
-5 -0 -0 -0 -0 -0 -0 -0 -2 -3 -5 -10 -0 -0 -0 -0 -0 -0 -0 -0 -0 -0 -0 -22 -17 -0 -0 -0 -0 -0 -0 -0 -0 -0 -0 -0 -0 -0 -0 -0 -0 -0 -0
-0 -0 -0 -0 -0 -0 -1 -1 -8 -7 -0 -28 -0 -0 -0 -0 -15 -0 -29 -0 -0 -0 -0 -0 -0 -0 -0 -0 -0 -0 -0 -0 -0 -0 -0 -0 -0 -0 -0 -0 -0 -0 -0
-0 -0 -0 -0 -0 -0 -0 -14 -14 -16 -22 -27 -28 -40 -36 -41 -4 -0 -0 -0 -0 -0 -0 -0 -0 -0 -0 -0 -0 -0 -0 -0 -0 -0 -0 -0 -0 -0 -0 -0 -0 -0 -0
-0 -0 -0 -0 -0 -9 -23 -21 -16 -15 -17 -11 -20 -27 -35 -47 -34 -35 -53 -41 -15 -0 -1 -0 -0 -0 -0 -0 -0 -0 -0 -0 -0 -0 -0 -0 -0 -0 -0 -0 -0 -0 -0
-0 -0 -0 -23 -44 -36 -29 -18 -24 -16 -14 -19 -12 -28 -0 -38 -52 -51 -35 -30 -51 -4 -62 -0 -0 -0 -0 -0 -0 -0 -0 -0 -0 -0 -0 -0 -0 -0 -0 -0 -0 -0 -0
-0 -0 -0 -0 -75 -58 -29 -2 -0 -0 -0 -0 -0 -0 -0 -0 -0 -32 -27 -27 -28 -0 -0 -0 -0 -0 -0 -0 -0 -0 -0 -0 -0 -0 -0 -0 -0 -0 -0 -0 -0 -0 -0
-0 -0 -0 -0 -0 -0 -0 -0 -0 -0 -0 -0 -0 -0 -27 -0 -0 -0 -15 -18 -17 -0 -0 -0 -0 -0 -0 -0 -0 -0 -0 -0 -0 -0 -0 -0 -0 -0 -0 -0 -0 -0 -0
-0 -0 -0 -0 -0 -0 -0 -0 -0 -0 -0 -0 -0 -0 -33 -0 -0 -0 -13 -13 -0 -0 -0 -0 -0 -0 -0 -0 -0 -0 -0 -0 -0 -0 -0 -0 -0 -0 -0 -0 -0 -0 -0
-0 -0 -0 -0 -0 -0 -0 -0 -0 -0 -0 -0 -0 -0 -43 -0 -0 -0 -28 -0 -0 -0 -0 -3 -1 -0 -0 -0 -0 -0 -0 -0 -0 -0 -0 -0 -0 -0 -0 -0 -0 -0 -0
-0 -0 -0 -0 -0 -0 -0 -0 -31 -0 -0 -0 -0 -0 -2 -50 -0 -1 -3 -0 -0 -0 -0 -4 -0 -0 -0 -0 -0 -0 -0 -0 -0 -0 -0 -0 -0 -0 -0 -0 -0 -0 -0
-18 -17 -13 -17 -0 -0 -0 -0 -0 -0 -0 -0 -0 -0 -0 -0 -0 -0 -14 -14 -1 -1 -1 -0 -0 -0 -0 -0 -0 -0 -0 -0 -0 -0 -0 -0 -0 -0 -0 -0 -0 -0 -0
-59 -45 -48 -50 -0 -0 -0 -0 -0 -0 -40 -32 -0 -0 -0 -0 -0 -0 -0 -7 -0 -0 -0 -0 -0 -0 -0 -0 -0 -0 -0 -0 -0 -0 -0 -0 -0 -0 -0 -0 -0 -0 -0
-107 -76 -73 -0 -0 -0 -0 -0 -0 -0 -65 -0 -0 -0 -0 -0 -0 -0 -0 -5 -1 -0 -1 -0 -0 -0 -0 -0 -1 -0 -0 -0 -0 -0 -0 -0 -0 -0 -0 -0 -0 -0 -0
-0 -0 -0 -0 -0 -0 -0 -0 -0 -0 -0 -0 -0 -0 -0 -0 -0 -0 -0 -0 -0 -0 -0 -8 -2 -4 -5 -3 -0 -0 -0 -0 -0 -0 -0 -0 -0 -0 -0 -0 -0 -0 -0
-0 -0 -0 -0 -0 -0 -0 -0 -0 -0 -0 -0 -0 -0 -0 -0 -0 -0 -0 -0 -0 -0 -0 -0 -0 -0 -0 -0 -0 -0 -0 -0 -0 -0 -0 -0 -0 -0 -0 -0 -0 -0 -0
-0 -0 -0 -0 -0 -0 -0 -0 -0 -0 -0 -0 -0 -0 -0 -0 -0 -0 -0 -0 -0 -0 -0 -0 -0 -0 -0 -0 -0 -0 -0 -0 -0 -0 -0 -0 -0 -0 -0 -0 -0 -0 -0
-0 -0 -0 -0 -0 -0 -0 -0 -0 -0 -0 -0 -0 -0 -0 -0 -0 -0 -0 -0 -0 -0 -0 -0 -0 -0 -0 -0 -0 -0 -0 -0 -0 -0 -0 -0 -0 -0 -0 -0 -0 -0 -0
-0 -0 -0 -0 -0 -0 -0 -0 -0 -0 -0 -0 -0 -0 -0 -0 -0 -0 -0 -0 -0 -0 -0 -0 -0 -0 -0 -0 -0 -0 -0 -0 -0 -0 -0 -0 -0 -0 -0 -0 -0 -0 -0
-0 -0 -0 -0 -0 -0 -0 -0 -0 -0 -0 -0 -0 -0 -0 -0 -0 -0 -0 -0 -0 -0 -0 -0 -0 -0 -0 -0 -0 -0 -0 -0 -0 -0 -0 -0 -0 -0 -0 -0 -0 -0 -0
Wind_Speed
43 45 46 44 38 36 36 36 28 28 28 28 28 28 27 27 25 25 25 25 25 26 25 25 26 27 28 28 28 27 26 25 27 23 19 13 11 10 11 11 12 11 10
42 43 42 39 35 35 34 28 25 25 25 25 25 25 25 24 23 22 23 22 23 22 23 23 25 26 27 27 27 27 26 24 22 22 18 14 11 8 8 10 9 9 9
40 39 37 32 32 32 29 24 23 23 24 24 23 23 22 23 22 20 21 21 20 21 22 23 24 25 26 26 27 26 25 22 18 17 16 12 11 8 8 10 7 8 9
34 33 33 31 32 29 24 23 22 22 22 23 23 23 22 22 22 22 20 21 21 21 21 22 24 25 26 25 25 24 22 20 16 13 10 8 8 8 7 7 5 7 9
30 29 29 32 25 24 23 23 21 21 20 20 21 21 22 22 22 21 20 21 20 20 21 23 25 25 22 21 22 21 19 17 14 11 9 7 5 4 5 8 4 6 10
24 23 22 25 25 24 22 23 22 21 20 20 20 21 21 20 19 19 20 20 18 20 21 21 23 22 18 18 19 18 17 15 13 11 9 8 8 7 5 3 3 5 11
16 20 24 23 23 24 23 22 22 21 20 18 18 20 19 19 20 19 20 19 20 19 17 18 20 21 17 16 16 17 17 17 15 12 10 10 9 9 4 3 4 6 10
16 25 23 21 22 22 23 23 23 21 19 17 17 18 19 19 19 18 18 20 20 19 16 18 17 18 18 16 15 15 16 16 16 14 12 12 11 8 6 3 4 6 8
22 22 23 22 22 23 23 22 20 19 19 19 20 20 20 20 19 18 19 20 20 20 19 18 18 17 17 16 16 16 15 15 16 16 14 13 12 9 7 5 4 5 11
24 23 23 23 24 24 24 24 22 21 21 21 21 21 20 20 19 19 20 21 21 21 20 20 19 19 18 18 17 16 16 17 17 17 15 13 12 10 9 7 5 8 9
23 23 24 24 25 25 25 25 25 24 23 24 24 22 21 19 18 18 19 20 20 19 20 20 20 20 19 17 17 17 17 17 17 15 12 11 8 7 7 7 7 7 7
24 24 24 24 20 20 25 26 27 26 27 26 26 27 25 22 20 21 20 19 20 19 18 19 21 21 20 19 17 18 18 18 15 11 9 8 6 8 6 7 8 6 7
25 24 22 25 26 27 26 26 26 27 24 23 23 24 25 21 20 21 21 21 20 20 19 20 21 20 19 18 18 16 18 18 15 12 10 10 11 8 2 11 13 5 1
26 26 27 28 28 28 28 27 26 24 21 21 20 19 21 22 21 20 20 20 20 17 15 17 20 20 21 19 17 17 17 14 2 5 4 6 12 13 15 16 13 10 10
28 29 29 29 29 29 29 29 28 24 22 21 20 19 21 22 21 20 20 19 18 17 16 14 17 19 19 15 8 4 9 13 15 15 16 15 14 14 14 15 17 20 21
29 29 29 30 30 30 31 31 28 25 16 20 23 23 23 25 24 22 19 17 18 15 14 12 12 14 14 12 6 10 16 14 16 16 19 18 18 18 19 20 22 21 21
30 30 29 28 27 28 29 30 31 31 20 21 25 24 21 16 17 17 15 16 14 8 9 6 8 9 14 5 11 17 16 14 18 19 21 21 22 21 22 21 21 22 20
25 24 22 22 22 23 23 26 26 27 29 26 25 27 24 16 8 5 1 2 7 8 7 2 5 9 9 10 12 17 19 17 20 21 22 22 22 21 20 22 23 24 25
14 15 17 19 19 21 27 27 26 24 23 20 16 9 5 3 5 6 4 5 6 8 11 12 12 14 15 16 18 21 21 21 22 23 23 23 21 18 19 23 22 22 25
13 14 17 22 27 30 28 28 26 26 25 22 19 14 13 14 12 13 14 14 14 14 16 16 16 15 14 18 21 23 25 24 24 23 23 22 20 21 22 23 23 23 23
25 30 32 31 29 29 28 29 29 27 26 24 21 19 19 21 18 17 20 20 18 18 18 17 18 18 19 19 19 22 25 25 25 26 27 26 24 22 24 26 24 24 25
31 32 31 29 29 28 27 28 28 29 26 25 23 22 23 22 21 22 22 22 19 17 17 19 20 23 21 21 23 27 30 31 30 31 31 29 25 25 27 27 27 26 24
29 29 31 31 29 29 29 31 31 30 27 23 24 24 23 24 24 24 24 22 19 19 18 20 23 23 20 21 25 26 28 28 30 30 28 26 23 24 25 24 23 22 23
32 33 32 31 30 30 29 29 29 29 27 26 24 22 24 24 24 23 22 21 20 21 20 18 22 27 25 24 24 27 26 23 21 22 24 25 23 23 20 19 17 15 14
33 31 31 31 30 30 30 28 28 28 27 26 25 23 24 24 23 22 21 21 21 21 20 19 20 22 23 25 26 25 25 23 24 22 19 16 16 16 17 17 14 8 8
29 30 31 31 31 30 29 29 28 28 28 28 26 26 26 26 26 24 22 20 19 18 18 18 18 19 20 21 22 22 21 20 19 16 16 14 8 7 10 13 14 13 14
Wind_Direction
333 332 329 327 325 325 322 312 313 320 319 322 325 327 324 320 315 306 301 302 304 305 306 307 306 303 303 307 306 304 303 306 307 317 326 334 336 339 346 346 359 4 6
334 333 331 329 329 327 325 321 317 317 320 326 328 330 329 328 324 316 304 306 308 312 313 313 305 305 308 311 309 309 310 312 311 314 322 326 331 337 344 339 350 356 3
338 339 340 339 337 333 329 330 323 320 322 323 328 332 336 323 322 325 313 308 310 315 314 311 309 310 312 314 314 316 318 320 319 317 320 326 332 338 333 338 342 1 10
343 346 347 347 340 341 344 339 332 329 329 328 327 328 332 324 318 320 315 310 307 307 312 311 310 313 316 321 323 326 329 330 333 331 330 326 320 324 328 331 15 4 343
349 352 355 351 1 359 356 352 348 342 344 341 335 331 325 321 319 311 324 314 307 305 310 309 311 318 325 329 330 334 339 342 346 349 342 327 323 324 312 316 4 1 332
1 5 11 12 13 15 13 9 359 357 351 352 335 325 320 322 329 321 331 319 319 309 311 321 325 328 339 342 346 350 351 358 358 4 352 328 312 311 338 59 40 5 329
17 15 12 18 19 14 9 6 2 360 355 331 328 352 335 330 324 334 345 333 327 331 330 338 347 352 350 351 352 356 1 2 6 15 357 325 319 321 347 55 53 3 326
37 15 24 36 39 40 33 29 25 20 4 338 334 331 340 342 349 359 356 353 358 1 0 355 4 6 10 13 10 9 8 3 3 4 356 342 339 350 355 345 18 351 339
30 28 26 27 27 25 15 358 351 354 1 352 353 353 1 1 360 3 356 1 13 16 18 17 21 24 23 17 18 19 14 6 2 360 356 353 349 7 23 40 34 9 296
18 23 31 39 37 29 20 9 7 17 9 11 10 14 17 12 6 10 11 16 19 16 24 25 24 34 35 24 20 11 4 355 351 347 343 340 344 343 295 306 329 300 312
30 39 48 45 40 39 39 43 33 32 35 42 35 21 16 8 2 8 12 15 16 20 25 22 19 25 33 30 22 18 12 9 359 353 340 334 329 326 318 321 326 355 344
53 53 46 51 77 82 71 66 59 59 62 50 42 43 35 21 16 18 22 16 25 25 16 21 35 32 29 27 20 24 25 15 4 357 350 351 344 1 350 16 18 222 209
54 58 88 72 64 57 54 48 43 40 34 30 39 35 31 13 11 15 22 27 25 30 25 31 33 25 17 14 15 6 10 19 15 11 11 15 20 15 303 193 182 190 103
78 73 70 61 56 52 49 47 31 22 25 25 22 11 17 11 7 9 22 26 23 15 8 14 22 23 22 17 5 6 16 21 283 354 4 183 172 169 169 175 179 179 160
73 69 61 56 57 65 62 58 34 24 23 21 21 22 18 12 8 12 16 15 20 16 8 352 3 9 8 1 337 318 172 160 158 158 155 158 158 157 156 158 158 156 154
64 65 63 68 67 70 64 66 74 29 4 26 48 40 36 32 23 22 18 14 14 354 340 326 335 353 3 4 347 165 150 156 155 154 151 151 153 152 150 150 151 150 150
69 80 88 92 86 84 80 74 78 78 23 25 42 41 24 1 7 16 17 13 4 350 354 342 345 353 20 183 161 151 153 155 152 148 147 146 147 147 148 147 148 149 152
102 105 103 98 96 94 89 86 87 89 85 101 35 46 30 13 9 8 3 152 140 133 141 166 149 147 149 150 153 151 150 150 148 148 145 146 147 147 148 147 146 145 147
132 126 112 101 98 96 91 90 94 103 111 120 127 131 128 90 86 93 64 106 101 89 88 103 123 130 131 135 141 142 146 148 148 146 145 146 148 149 148 148 145 145 145
134 125 107 102 98 96 98 96 100 104 109 115 118 120 122 121 118 116 113 116 113 114 115 119 126 130 131 136 135 138 141 144 145 146 146 149 149 149 149 149 145 145 146
109 101 97 104 104 103 102 102 102 103 107 112 113 115 118 121 118 116 121 118 116 120 116 112 114 115 117 121 126 134 138 142 143 145 144 145 146 145 146 146 145 145 147
108 105 105 107 107 107 108 104 103 101 106 110 117 116 118 119 117 115 117 117 116 115 115 112 111 115 113 111 117 123 127 131 135 138 141 141 143 143 141 140 141 141 143
113 109 105 106 109 109 107 102 101 102 108 113 118 119 117 117 115 115 115 117 114 113 113 113 115 114 110 108 113 121 124 126 129 134 139 141 142 143 144 143 144 144 144
108 111 109 109 108 109 109 108 107 107 111 113 118 121 120 118 116 116 117 118 116 115 114 115 119 119 118 119 117 117 121 124 126 128 133 138 139 141 143 144 146 144 144
114 115 112 112 111 110 110 111 112 113 115 118 120 121 120 119 118 118 118 119 117 115 113 113 116 117 118 120 123 128 129 128 129 131 131 128 129 133 139 142 144 128 83
123 119 116 114 113 113 113 112 114 116 118 120 121 120 118 117 118 118 118 117 118 117 117 116 115 116 118 121 124 127 130 136 140 142 145 146 135 91 64 57 56 52 51